When you browse on this site, cookies collect data to enhance your experience and personalize the content and advertising you see.
Visit our Privacy Policy to learn more. By continuing to use the site, you agree to this use of cookies and data.
  • In Hungary
  • List of Countries
  • For 7 days
  • Water Temperature
  • Satellite Maps
  • Weather Map
  • News
  • Weather Widgets
  • user-avatar
    Login

    Hourly Weather Mundelein

    Today, 19 July, Friday

    Time Temperature Precipitation Wind Pressure Humidity
    00:00 +29°C° 0 mm 5 mps 735 mmHg 86%
    01:00 +29°C° 0 mm 5 mps 735 mmHg 86%
    02:00 +29°C° 0 mm 5 mps 735 mmHg 86%
    03:00 +28°C° 0 mm 5 mps 735 mmHg 86%
    04:00 +28°C° 0 mm 5 mps 735 mmHg 85%
    05:00 +28°C° 0 mm 5 mps 735 mmHg 84%
    06:00 +28°C° 0 mm 5 mps 736 mmHg 84%
    07:00 +29°C° 0 mm 5 mps 736 mmHg 81%
    08:00 +30°C° 0 mm 5 mps 736 mmHg 78%
    09:00 +32°C° 0 mm 5 mps 736 mmHg 75%
    10:00 +33°C° 0 mm 5 mps 736 mmHg 74%
    11:00 +33°C° 0 mm 5 mps 736 mmHg 72%
    12:00 +34°C° 0 mm 5 mps 736 mmHg 71%
    13:00 +34°C° 0 mm 5 mps 736 mmHg 72%
    14:00 +34°C° 0 mm 5 mps 736 mmHg 72%
    15:00 +34°C° 0 mm 6 mps 736 mmHg 73%
    16:00 +34°C° 0 mm 6 mps 736 mmHg 75%
    17:00 +33°C° 0 mm 6 mps 736 mmHg 77%
    18:00 +33°C° 0 mm 6 mps 735 mmHg 79%
    19:00 +32°C° 0 mm 6 mps 736 mmHg 81%
    20:00 +32°C° 0 mm 6 mps 736 mmHg 83%
    21:00 +30°C° 0 mm 6 mps 736 mmHg 86%
    22:00 +30°C° 0 mm 6 mps 736 mmHg 85%
    23:00 +30°C° 0 mm 6 mps 736 mmHg 84%

    Tomorrow, 20 July, Saturday

    Time Temperature Precipitation Wind Pressure Humidity
    00:00 +29°C° 0 mm 5 mps 736 mmHg 84%
    01:00 +29°C° 0 mm 5 mps 736 mmHg 86%
    02:00 +29°C° 0 mm 4 mps 736 mmHg 88%
    03:00 +28°C° 0 mm 4 mps 736 mmHg 90%
    04:00 +28°C° 0 mm 4 mps 736 mmHg 89%
    05:00 +28°C° 0 mm 4 mps 736 mmHg 89%
    06:00 +28°C° 0 mm 5 mps 736 mmHg 88%
    07:00 +29°C° 0 mm 5 mps 736 mmHg 84%
    08:00 +30°C° 0 mm 5 mps 737 mmHg 79%
    09:00 +32°C° 0 mm 6 mps 737 mmHg 75%
    10:00 +33°C° 0.2 mm 5 mps 738 mmHg 74%
    11:00 +33°C° 0.2 mm 5 mps 738 mmHg 74%
    12:00 +33°C° 0.2 mm 4 mps 738 mmHg 73%
    13:00 +33°C° 0.8 mm 3 mps 738 mmHg 72%
    14:00 +31°C° 0.8 mm 2 mps 737 mmHg 72%
    15:00 +31°C° 0.8 mm 2 mps 737 mmHg 71%
    16:00 +30°C° 0.5 mm 2 mps 737 mmHg 73%
    17:00 +30°C° 0.5 mm 2 mps 737 mmHg 74%
    18:00 +30°C° 0.5 mm 2 mps 737 mmHg 76%
    19:00 +29°C° 2.2 mm 2 mps 737 mmHg 79%
    20:00 +28°C° 2.2 mm 2 mps 737 mmHg 82%
    21:00 +27°C° 2.2 mm 2 mps 738 mmHg 85%
    22:00 +26°C° 1.9 mm 2 mps 738 mmHg 86%
    23:00 +26°C° 1.9 mm 1 mps 738 mmHg 87%

    Day after tomorrow, 21 July, Sunday

    Time Temperature Precipitation Wind Pressure Humidity
    00:00 +25°C° 1.9 mm 1 mps 738 mmHg 88%
    01:00 +24°C° 0.1 mm 3 mps 738 mmHg 88%
    02:00 +23°C° 0.1 mm 4 mps 737 mmHg 89%
    03:00 +22°C° 0.1 mm 5 mps 737 mmHg 89%
    04:00 +22°C° 0.3 mm 5 mps 738 mmHg 87%
    05:00 +22°C° 0.3 mm 4 mps 738 mmHg 86%
    06:00 +22°C° 0.3 mm 4 mps 739 mmHg 85%
    07:00 +22°C° 0.1 mm 4 mps 739 mmHg 80%
    08:00 +22°C° 0.1 mm 4 mps 739 mmHg 76%
    09:00 +23°C° 0.1 mm 4 mps 739 mmHg 72%
    10:00 +25°C° 0 mm 4 mps 740 mmHg 67%
    11:00 +26°C° 0 mm 5 mps 740 mmHg 62%
    12:00 +27°C° 0 mm 5 mps 740 mmHg 57%
    13:00 +26°C° 0 mm 5 mps 740 mmHg 59%
    14:00 +26°C° 0 mm 5 mps 740 mmHg 62%
    15:00 +26°C° 0 mm 5 mps 740 mmHg 64%
    16:00 +25°C° 0 mm 5 mps 740 mmHg 65%
    17:00 +23°C° 0 mm 5 mps 740 mmHg 66%
    18:00 +22°C° 0 mm 5 mps 741 mmHg 66%
    19:00 +21°C° 0 mm 5 mps 741 mmHg 63%
    20:00 +20°C° 0 mm 4 mps 741 mmHg 60%
    21:00 +19°C° 0 mm 4 mps 742 mmHg 57%
    22:00 +19°C° 0 mm 4 mps 742 mmHg 58%
    23:00 +19°C° 0 mm 4 mps 742 mmHg 58%

    22 July, Monday

    Time Temperature Precipitation Wind Pressure Humidity
    00:00 +19°C° 0 mm 3 mps 742 mmHg 59%
    01:00 +18°C° 0 mm 3 mps 742 mmHg 61%
    02:00 +18°C° 0 mm 3 mps 742 mmHg 63%
    03:00 +18°C° 0 mm 2 mps 742 mmHg 66%
    04:00 +18°C° 0 mm 2 mps 743 mmHg 67%
    05:00 +18°C° 0 mm 2 mps 743 mmHg 68%
    06:00 +18°C° 0 mm 2 mps 744 mmHg 69%
    07:00 +20°C° 0 mm 2 mps 744 mmHg 64%
    08:00 +21°C° 0 mm 2 mps 744 mmHg 60%
    09:00 +24°C° 0 mm 2 mps 745 mmHg 55%
    10:00 +25°C° 0 mm 3 mps 745 mmHg 54%
    11:00 +25°C° 0 mm 3 mps 745 mmHg 52%
    12:00 +26°C° 0 mm 4 mps 745 mmHg 51%
    13:00 +26°C° 0 mm 4 mps 744 mmHg 51%
    14:00 +26°C° 0 mm 4 mps 744 mmHg 52%
    15:00 +26°C° 0 mm 4 mps 744 mmHg 53%
    16:00 +26°C° 0 mm 4 mps 744 mmHg 57%
    17:00 +25°C° 0 mm 3 mps 744 mmHg 62%
    18:00 +24°C° 0 mm 3 mps 744 mmHg 66%
    19:00 +22°C° 0 mm 3 mps 744 mmHg 68%
    20:00 +21°C° 0 mm 3 mps 744 mmHg 69%
    21:00 +20°C° 0 mm 3 mps 744 mmHg 71%
    22:00 +20°C° 0 mm 3 mps 744 mmHg 74%
    23:00 +19°C° 0 mm 3 mps 744 mmHg 77%

    23 July, Tuesday

    Time Temperature Precipitation Wind Pressure Humidity
    00:00 +19°C° 0 mm 3 mps 744 mmHg 79%
    01:00 +18°C° 0 mm 3 mps 744 mmHg 81%
    02:00 +17°C° 0 mm 3 mps 744 mmHg 84%
    03:00 +17°C° 0 mm 3 mps 744 mmHg 86%
    04:00 +17°C° 0 mm 3 mps 744 mmHg 83%
    05:00 +18°C° 0 mm 3 mps 745 mmHg 80%
    06:00 +18°C° 0 mm 3 mps 745 mmHg 77%
    07:00 +19°C° 0 mm 3 mps 745 mmHg 71%
    08:00 +21°C° 0 mm 3 mps 746 mmHg 65%
    09:00 +22°C° 0 mm 3 mps 746 mmHg 58%
    10:00 +24°C° 0 mm 3 mps 746 mmHg 55%
    11:00 +25°C° 0 mm 3 mps 746 mmHg 51%
    12:00 +25°C° 0 mm 3 mps 746 mmHg 48%
    13:00 +25°C° 0 mm 3 mps 746 mmHg 49%
    14:00 +26°C° 0 mm 3 mps 745 mmHg 49%
    15:00 +26°C° 0 mm 3 mps 745 mmHg 50%
    16:00 +25°C° 0 mm 2 mps 745 mmHg 53%
    17:00 +25°C° 0 mm 2 mps 745 mmHg 56%
    18:00 +24°C° 0 mm 2 mps 745 mmHg 60%
    19:00 +23°C° 0 mm 1 mps 745 mmHg 61%
    20:00 +22°C° 0 mm 1 mps 745 mmHg 62%
    21:00 +19°C° 0 mm 0 mps 745 mmHg 64%
    22:00 +18°C° 0 mm 0 mps 745 mmHg 64%
    23:00 +20°C° 0 mm 1 mps 745 mmHg 65%

    24 July, Wednesday

    Time Temperature Precipitation Wind Pressure Humidity
    00:00 +20°C° 0 mm 1 mps 745 mmHg 65%
    01:00 +20°C° 0 mm 1 mps 745 mmHg 67%
    02:00 +19°C° 0 mm 1 mps 745 mmHg 68%
    03:00 +19°C° 0 mm 1 mps 745 mmHg 70%
    04:00 +18°C° 0 mm 2 mps 746 mmHg 71%
    05:00 +18°C° 0 mm 2 mps 746 mmHg 73%
    06:00 +18°C° 0 mm 2 mps 746 mmHg 74%
    07:00 +20°C° 0 mm 2 mps 746 mmHg 70%
    08:00 +23°C° 0 mm 1 mps 746 mmHg 67%
    09:00 +24°C° 0 mm 1 mps 746 mmHg 63%
    10:00 +25°C° 0 mm 2 mps 746 mmHg 58%
    11:00 +27°C° 0 mm 2 mps 746 mmHg 54%
    12:00 +28°C° 0 mm 2 mps 746 mmHg 49%
    13:00 +28°C° 0 mm 2 mps 746 mmHg 50%
    14:00 +27°C° 0 mm 2 mps 746 mmHg 51%
    15:00 +27°C° 0 mm 2 mps 746 mmHg 53%
    16:00 +27°C° 0 mm 2 mps 745 mmHg 57%
    17:00 +26°C° 0 mm 2 mps 745 mmHg 62%
    18:00 +25°C° 0 mm 2 mps 745 mmHg 67%
    19:00 +24°C° 0 mm 2 mps 745 mmHg 69%
    20:00 +23°C° 0 mm 2 mps 745 mmHg 72%
    21:00 +21°C° 0 mm 2 mps 745 mmHg 74%
    22:00 +21°C° 0 mm 2 mps 745 mmHg 75%
    23:00 +20°C° 0 mm 2 mps 745 mmHg 76%
    Show more